"Pseudo-MPEC" for A10Uozp

Created 2023 Apr 3 20:22:03 UT using Find_Orb

Click here for an explanation of pseudo-MPECs

 
 Astrometry: 
     A10Uozp* C2023 04 013un`s[^5qI8[/[`@$CjV-Ea8C#/]8GJgo1`QoOrh](ICJ!EnXR9?M22
     A10Uozp  C2023 04 01D6vSthTDUJ/o!$EWwgnY675:m[bKgD28@efb@e=jtfES1*xpciaxM22
     A10Uozp  C2023 04 01]T3FY!#3nwx[_rFVb@Cas.=#ag@P)sg],gq-itt^Ls?eE?Bb9?IgM22
     A10Uozp  C2023 04 01MAj4.e7^,ODMFR=t!FSt2ym.a,Mds+i:]a+AGZ?uK8URm!+Ag*4uM22
     A10Uozp KC2023 04 02.00459510 56 09.485-38 50 11.40   ~420q 17.6 GXNEOCPY00
     A10Uozp KC2023 04 02.00728110 56 17.278-38 49 13.12   ~420q 17.1 GXNEOCPY00
     A10Uozp KC2023 04 02.00997910 56 25.182-38 48 14.20   ~420q 18.0 GXNEOCPY00
     A10Uozp KC2023 04 02.01267410 56 32.936-38 47 15.68   ~420q 17.9 GXNEOCPY00
     A10Uozp KC2023 04 02kt0nW;fF/I-;DUOcPV5B1g5frVTWD),22Astrometryc(Rc7!p,EX93
     A10Uozp KC2023 04 02%\c/8xredacted;Q#e@C7vQn@5q_A)K^1XG#Yq/YQkB`]@l:_2^vX93
     A10Uozp [C2023 04 02/iE)$BEyH]e^h90QraCn!clickZhmuM3$iIr'?or=d]w%621/MTWQ62
     A10Uozp [C2023 04 02OhFvcMPQESTrZMg:^X][[=qGNZu\8$J^h1W=qKt+y;SyX6Zm-,o5Q62
     A10Uozp [C2023 04 03fDK$Hherev(3\E6.JdmIZm3mnMTTBD@foyhEokcwXBnbm3/pGWMZQ62
     A10Uozp [C2023 04 03]t(d(\-LforWMv0u%a9#?9yhUFUd=uD\Xr?wT!^[X1Wh'RnBkK^JQ62
     A10Uozp KC2023 04 03^mq92ho-f+@^J=8L!s^2*'n7O6(,A$j4u)FcRTO^tgb7Z4l-MX8.E23
     A10Uozp KC2023 04 03LO7=17IRo:Aexplanationkwg.Pu8hoYP`9?RGFe9T7Bk.S\2`QLE23
     A10Uozp KC2023 04 03'v#n+-jwu9VTJE`KkKdy=,DK_]E1cL.gumN?jJX*2$OsOtx9s;y=E23
     A10Uozp 2C2023 04 03g9w$^.he/:c7Y-ak.EXft+H)/uy/lfHiD`Rf%nO?2gR?(xMNVn;0Q62
     A10Uozp 2C2023 04 03Kx?Fw(9=P\bk4Np]XjoEv4MtU*0XEt)Dm)Avv_LY!qG)h^a2-,.vQ62

Station data:
(E23) Arcadia  (S33.621197 E151.071190)  Australia/NSW.  Observer A. Hidas.
   0.35-m f/1.9 reflector + CCD.
(M22) ATLAS South Africa, Sutherland  (S32.380156 E20.810590)  South Africa.
   Observers L. Denneau, R. Siverd, J. Tonry, H. Weiland. Measurers L.
   Denneau, N. Erasmus, A. Fitzsimmons, A. Lawrence, J. Robinson, R. Siverd,
   J. Tonry, H. Weiland. 0.5-m reflector + CCD.
(Q62) iTelescope Observatory, Siding Spring  (S31.273286 E149.064420)
   Australia/NSW.  Observers M. Urbanik, M. Suzuki. 0.51-m f/6.8 astrograph +
   CCD + f/4.5 focal reducer0.43-m f/6.8 astrograph + CCD + focal
   reducer0.43-m f/6.8 astrograph + CCD0.10-m f/5 astrograph + CCD0.127-m
   f/5.6 refractor + CCD0.50-m f/6.8 reflector + CCD0.30-m f/9 reflector +
   CCD.
(X93) Munhoz Observatory  (S22.628912 W46.395300)  Brazil.
(Y00) SONEAR Observatory, Oliveira  (S20.715080 W44.784960)  Brazil.
   Observers C. Jacques, E. Pimentel, J. Barros. Measurer C. Jacques. 0.45-m
   f/2.9 astrograph + CCD.

Orbital elements:  A10Uozp
   Perihelion 2023 Feb 15.05960 +/- 0.0253 TT =  1:25:49 (JD 2459990.55960)
Epoch 2023 Apr  3.0 TT = JDT 2460037.5   Earth MOID: 0.0161   Ve: 0.0411
M  16.24717818 +/- 0.06             Ma: 0.0553                   AutoNEOCP
n   0.34612356 +/- 0.00129          Peri.  134.43756 +/- 0.017
a   2.00900923 +/- 0.00497          Node   346.54370 +/- 0.015
e   0.6221934 +/- 0.00106           Incl.    2.43322 +/- 0.0039
P   2.85                   H 24.13  G  0.15   U  8.3
q 0.75901686 +/- 0.000258    Q 3.25900160 +/- 0.0102      (J2000 ecliptic)
From 19 observations 2023 Apr. 1-3 (42.6 hr); mean residual 0".47
Residuals in arcseconds: 
230401 M22  .64-  .53-    230402 Y00  .24-  .12+    230403 E23  .52+  .33-    
230401 M22  .45-  1.0-    230402 X93  .09+  .11+    230403 E23  .19-  .36+    
230401 M22  .67+  .39+    230402 X93  .68-  .03+    230403 E23  .20-  .20-    
230401 M22  1.5+  .82+    230402 Q62  .01+  .39+    230403 Q62  .25+  .39+    
230402 Y00  .12-  .03-    230402 Q62  .09-  .21-    230403 Q62  .59-  .44-    
230402 Y00  .39-  .12-    230403 Q62  .56+  .38+    
230402 Y00  .42+  .17+    230403 Q62  .12-  .22-    

Ephemerides (geocentric):
Date (UTC) HH   RA             Dec           delta  r     elong  mag " sig PA
---- --------  ------------   ------------  ------ ------ -----  --- --------
2023 04 03 20  11 52 33.487   -30 25 07.90  .04189 1.0368 151.5 18.6 .129  60
2023 04 03 21  11 53 18.921   -30 16 58.13  .04223 1.0372 151.7 18.6 .153  59
2023 04 03 22  11 54 03.505   -30 08 55.21  .04257 1.0376 151.9 18.6 .176  58
2023 04 03 23  11 54 47.261   -30 00 59.01  .04292 1.0379 152.1 18.6 .200  57
2023 04 04 00  11 55 30.212   -29 53 09.42  .04326 1.0383 152.3 18.6 .224  57
2023 04 04 01  11 56 12.378   -29 45 26.30  .04361 1.0387 152.5 18.7 .248  57
2023 04 04 02  11 56 53.781   -29 37 49.56  .04395 1.0391 152.7 18.7 .272  56
2023 04 04 03  11 57 34.440   -29 30 19.07  .04430 1.0395 152.9 18.7 .297  56
2023 04 04 04  11 58 14.374   -29 22 54.72  .04465 1.0399 153.0 18.7 .321  56
2023 04 04 05  11 58 53.602   -29 15 36.41  .04499 1.0403 153.2 18.7 .346  55
2023 04 04 06  11 59 32.143   -29 08 24.02  .04534 1.0406 153.4 18.7 .371  55
2023 04 04 07  12 00 10.012   -29 01 17.45  .04569 1.0410 153.5 18.7 .396  55
2023 04 04 08  12 00 47.228   -28 54 16.60  .04604 1.0414 153.7 18.7 .421  55
2023 04 04 09  12 01 23.806   -28 47 21.37  .04639 1.0418 153.9 18.8 .446  54
2023 04 04 10  12 01 59.763   -28 40 31.64  .04674 1.0422 154.0 18.8 .471  54
2023 04 04 11  12 02 35.113   -28 33 47.34  .04709 1.0426 154.2 18.8 .496  54
2023 04 04 12  12 03 09.872   -28 27 08.35  .04744 1.0429 154.4 18.8 .521  54
2023 04 04 13  12 03 44.053   -28 20 34.59  .04779 1.0433 154.5 18.8 .546  54
2023 04 04 14  12 04 17.671   -28 14 05.97  .04814 1.0437 154.7 18.8 .571  54
2023 04 04 15  12 04 50.739   -28 07 42.38  .04849 1.0441 154.8 18.8 .596  53
2023 04 04 16  12 05 23.270   -28 01 23.75  .04884 1.0445 155.0 18.8 .622  53
2023 04 04 17  12 05 55.276   -27 55 09.99  .04920 1.0449 155.1 18.8 .647  53
2023 04 04 18  12 06 26.771   -27 49 01.00  .04955 1.0452 155.3 18.9 .672  53
2023 04 04 19  12 06 57.766   -27 42 56.71  .04990 1.0456 155.4 18.9 .697  53
2023 04 04 20  12 07 28.272   -27 36 57.04  .05026 1.0460 155.5 18.9 .722  53
2023 04 04 21  12 07 58.301   -27 31 01.90  .05061 1.0464 155.7 18.9 .747  53
2023 04 04 22  12 08 27.863   -27 25 11.22  .05097 1.0468 155.8 18.9 .772  53
2023 04 04 23  12 08 56.969   -27 19 24.91  .05132 1.0472 155.9 18.9 .797  53
2023 04 05 00  12 09 25.630   -27 13 42.90  .05168 1.0476 156.1 18.9 .821  52
2023 04 05 01  12 09 53.855   -27 08 05.13  .05203 1.0479 156.2 18.9 .846  52
2023 04 05 02  12 10 21.654   -27 02 31.50  .05239 1.0483 156.3 19.0 .871  52
2023 04 05 03  12 10 49.036   -26 57 01.96  .05274 1.0487 156.5 19.0 .895  52
2023 04 05 04  12 11 16.011   -26 51 36.44  .05310 1.0491 156.6 19.0 .920  52
2023 04 05 05  12 11 42.587   -26 46 14.85  .05346 1.0495 156.7 19.0 .944  52
2023 04 05 06  12 12 08.772   -26 40 57.15  .05382 1.0499 156.8 19.0 .968  52
2023 04 05 07  12 12 34.576   -26 35 43.26  .05417 1.0503 157.0 19.0 0.99  52
2023 04 05 08  12 13 00.007   -26 30 33.11  .05453 1.0506 157.1 19.0 1.02  52
2023 04 05 09  12 13 25.072   -26 25 26.65  .05489 1.0510 157.2 19.0 1.04  52
2023 04 05 10  12 13 49.779   -26 20 23.82  .05525 1.0514 157.3 19.0 1.06  52
2023 04 05 11  12 14 14.135   -26 15 24.54  .05561 1.0518 157.4 19.1 1.09  52
2023 04 05 12  12 14 38.148   -26 10 28.77  .05597 1.0522 157.5 19.1 1.11  51
2023 04 05 13  12 15 01.825   -26 05 36.44  .05633 1.0526 157.6 19.1 1.14  51
2023 04 05 14  12 15 25.173   -26 00 47.49  .05668 1.0530 157.8 19.1 1.16  51
2023 04 05 15  12 15 48.198   -25 56 01.88  .05704 1.0534 157.9 19.1 1.18  51
2023 04 05 16  12 16 10.907   -25 51 19.55  .05741 1.0537 158.0 19.1 1.21  51
2023 04 05 17  12 16 33.307   -25 46 40.43  .05777 1.0541 158.1 19.1 1.23  51
2023 04 05 18  12 16 55.403   -25 42 04.49  .05813 1.0545 158.2 19.1 1.25  51
2023 04 05 19  12 17 17.202   -25 37 31.66  .05849 1.0549 158.3 19.1 1.28  51